Orbital Elements at Epoch 2459200.5 (2020-Dec-17.0) TDB
Reference: JPL 22 (heliocentric ecliptic J2000)
Element | Value | Uncertainty (1-sigma) | Units |
e | .1080327874535582 | 4.8891e-08 | |
a | 3.057212337317457 | 2.3951e-08 | au |
q | 2.726933166679645 | 1.5665e-07 | au |
i | 1.388668375526175 | 5.4492e-06 | deg |
node | 168.6052862590544 | 0.00017214 | deg |
peri | 339.7599719247822 | 0.00017369 | deg |
M | 269.1915570976414 | 2.5101e-05 | deg |
tp | 2459693.004905117702 (2022-Apr-23.50490512) | 0.00013907 | TDB |
period | 1952.481070873725 5.35 | 2.2944e-05 6.282e-08 | d yr |
n | .1843807888180457 | 2.1667e-09 | deg/d |
Q | 3.38749150795527 | 2.6538e-08 | au |
|
| | Orbit Determination Parameters
Additional Information
|